SR9WXM Weather Reports


Display with metric or nautical units.
time (UTC)temp
F
wind
direction
speed
MPH
gust
MPH
rain 1hr
in
rain 24hr
in
rain mn
in
humidity
%
barometer
mb
20260504110612 65 231 8.0 11.0 0.00 0.00 0.00 100
20260504110212 65 218 11.0 15.0 0.00 0.00 0.00 100
20260504100604 64 229 10.0 15.0 0.00 0.00 0.00 100
20260504100204 64 222 8.0 14.0 0.00 0.00 0.00 100
20260504081745 57 206 13.0 19.0 0.00 0.00 0.00 100
20260504081345 57 201 14.0 22.0 0.00 0.00 0.00 100
20260504080945 57 217 12.0 19.0 0.00 0.00 0.00 100
20260504080545 57 204 14.0 20.0 0.00 0.00 0.00 100
20260504080146 56 206 14.0 20.0 0.00 0.00 0.00 100
20260504070130 53 202 13.0 20.0 0.00 0.00 0.00 100
20260504060125 51 187 15.0 22.0 0.00 0.00 0.00 100
20260504050518 50 201 15.0 24.0 0.00 0.00 0.00 100
20260504050118 50 195 14.0 22.0 0.00 0.00 0.00 100
20260504045716 49 204 15.0 20.0 0.00 0.00 0.00 100
20260504045316 49 204 13.0 19.0 0.00 0.00 0.00 100
20260504044916 50 197 12.0 17.0 0.00 0.00 0.00 100
20260504044516 49 204 10.0 16.0 0.00 0.00 0.00 100
20260504044116 49 185 13.0 20.0 0.00 0.00 0.00 100
20260504043714 49 194 12.0 17.0 0.00 0.00 0.00 100
20260504043314 49 182 12.0 18.0 0.00 0.00 0.00 100
20260504042907 49 206 12.0 19.0 0.00 0.00 0.00 100
20260504042108 49 202 11.0 15.0 0.00 0.00 0.00 100
20260504041705 50 198 14.0 21.0 0.00 0.00 0.00 100
20260504041304 50 194 14.0 20.0 0.00 0.00 0.00 100
20260504040904 50 201 13.0 18.0 0.00 0.00 0.00 100
20260504040104 50 190 16.0 23.0 0.00 0.00 0.00 100
20260504035705 50 199 17.0 24.0 0.00 0.00 0.00 100
20260504035302 50 197 16.0 24.0 0.00 0.00 0.00 100
20260504034902 50 186 17.0 22.0 0.00 0.00 0.00 100
20260504034502 50 195 17.0 22.0 0.00 0.00 0.00 100
20260504034102 50 204 17.0 22.0 0.00 0.00 0.00 100
20260504033700 49 196 17.0 23.0 0.00 0.00 0.00 100
20260504033259 49 199 18.0 21.0 0.00 0.00 0.00 100
20260504032859 49 172 16.0 25.0 0.00 0.00 0.00 100
20260504032459 49 195 16.0 24.0 0.00 0.00 0.00 100
20260504032059 49 193 16.0 22.0 0.00 0.00 0.00 100
20260504031658 49 199 14.0 21.0 0.00 0.00 0.00 100
20260504031257 49 204 16.0 23.0 0.00 0.00 0.00 100
20260504030857 49 187 14.0 18.0 0.00 0.00 0.00 100
20260504030458 49 205 14.0 20.0 0.00 0.00 0.00 100
20260504030058 48 197 14.0 16.0 0.00 0.00 0.00 100
20260504025656 48 198 14.0 20.0 0.00 0.00 0.00 100
20260504025255 48 194 13.0 15.0 0.00 0.00 0.00 100
20260504024855 49 193 14.0 18.0 0.00 0.00 0.00 100
20260504024455 48 196 14.0 19.0 0.00 0.00 0.00 100
20260504024055 48 196 15.0 20.0 0.00 0.00 0.00 100
20260504023653 48 207 16.0 19.0 0.00 0.00 0.00 100
20260504023253 49 202 15.0 19.0 0.00 0.00 0.00 100
20260504022852 49 204 14.0 20.0 0.00 0.00 0.00 100
20260504022452 48 200 14.0 20.0 0.00 0.00 0.00 100
20260504022053 48 203 14.0 19.0 0.00 0.00 0.00 100
20260504021651 49 199 14.0 24.0 0.00 0.00 0.00 100
20260504021251 49 195 16.0 23.0 0.00 0.00 0.00 100
20260504020851 48 204 16.0 23.0 0.00 0.00 0.00 100
20260504020451 48 201 14.0 19.0 0.00 0.00 0.00 100
20260504020053 48 188 13.0 19.0 0.00 0.00 0.00 100
20260504015640 49 192 15.0 22.0 0.00 0.00 0.00 100
20260504015240 49 192 14.0 21.0 0.00 0.00 0.00 100
20260504014840 49 192 15.0 20.0 0.00 0.00 0.00 100
20260504014438 49 174 13.0 19.0 0.00 0.00 0.00 100
20260504014038 49 196 15.0 21.0 0.00 0.00 0.00 100
20260504013636 49 208 14.0 18.0 0.00 0.00 0.00 100
20260504013236 49 195 13.0 17.0 0.00 0.00 0.00 100
20260504012836 50 198 14.0 22.0 0.00 0.00 0.00 100
20260504012436 50 204 15.0 20.0 0.00 0.00 0.00 100
20260504012036 50 192 15.0 21.0 0.00 0.00 0.00 100
20260504011634 50 197 15.0 20.0 0.00 0.00 0.00 100
20260504011234 50 198 13.0 17.0 0.00 0.00 0.00 100
20260504010834 50 200 14.0 20.0 0.00 0.00 0.00 100
20260504010434 50 184 13.0 18.0 0.00 0.00 0.00 100
20260504010034 50 203 14.0 21.0 0.00 0.00 0.00 100
20260504005632 50 198 13.0 20.0 0.00 0.00 0.00 100
20260504005231 50 193 13.0 18.0 0.00 0.00 0.00 100
20260504004831 50 200 12.0 16.0 0.00 0.00 0.00 100
20260504004431 50 186 13.0 17.0 0.00 0.00 0.00 100
20260504004031 50 173 12.0 16.0 0.00 0.00 0.00 100
20260504003629 50 196 12.0 19.0 0.00 0.00 0.00 100
20260504003229 50 198 11.0 17.0 0.00 0.00 0.00 100
20260504002829 50 196 12.0 15.0 0.00 0.00 0.00 100
20260504002429 50 205 13.0 18.0 0.00 0.00 0.00 100
20260504002029 50 197 13.0 17.0 0.00 0.00 0.00 100
20260504001627 50 207 12.0 20.0 0.00 0.00 0.00 100
20260504001227 50 204 14.0 18.0 0.00 0.00 0.00 100
20260504000827 50 203 14.0 20.0 0.00 0.00 0.00 100
20260504000427 50 208 14.0 20.0 0.00 0.00 0.00 100
20260504000027 50 196 14.0 19.0 0.00 0.00 0.00 100
20260503235625 50 210 15.0 20.0 0.00 0.00 0.00 100
20260503235225 50 207 14.0 24.0 0.00 0.00 0.00 100
20260503234825 50 211 15.0 18.0 0.00 0.00 0.00 100
20260503234425 50 199 15.0 20.0 0.00 0.00 0.00 100
20260503234025 50 200 14.0 19.0 0.00 0.00 0.00 100
20260503233623 50 193 14.0 20.0 0.00 0.00 0.00 100
20260503233223 50 198 13.0 20.0 0.00 0.00 0.00 100
20260503232823 50 204 12.0 19.0 0.00 0.00 0.00 100
20260503232423 50 204 13.0 16.0 0.00 0.00 0.00 100
20260503232016 50 202 13.0 18.0 0.00 0.00 0.00 100
20260503231614 50 204 13.0 20.0 0.00 0.00 0.00 100
20260503231214 50 209 12.0 15.0 0.00 0.00 0.00 100
20260503230813 50 204 12.0 20.0 0.00 0.00 0.00 100
20260503230414 50 202 10.0 16.0 0.00 0.00 0.00 100
20260503230014 50 189 11.0 17.0 0.00 0.00 0.00 100
20260503225612 50 186 13.0 21.0 0.00 0.00 0.00 100
20260503225212 50 195 11.0 16.0 0.00 0.00 0.00 100
20260503224811 51 206 12.0 15.0 0.00 0.00 0.00 100
20260503224411 51 188 12.0 18.0 0.00 0.00 0.00 100
20260503224011 51 202 12.0 18.0 0.00 0.00 0.00 100
20260503223609 51 185 13.0 17.0 0.00 0.00 0.00 100
20260503223209 51 190 13.0 16.0 0.00 0.00 0.00 100
20260503222809 51 185 12.0 19.0 0.00 0.00 0.00 100
20260503222409 50 171 11.0 16.0 0.00 0.00 0.00 100
20260503222009 51 202 12.0 16.0 0.00 0.00 0.00 100
20260503221607 51 180 11.0 15.0 0.00 0.00 0.00 100
20260503221207 51 187 12.0 16.0 0.00 0.00 0.00 100
20260503220807 51 186 10.0 14.0 0.00 0.00 0.00 100
20260503220406 51 176 12.0 17.0 0.00 0.00 0.00 100
20260503220006 51 170 10.0 13.0 0.00 0.00 0.00 100
20260503215605 51 187 10.0 15.0 0.00 0.00 0.00 100
20260503215205 51 191 12.0 17.0 0.00 0.00 0.00 100
20260503214805 51 189 13.0 18.0 0.00 0.00 0.00 100
20260503214405 51 175 12.0 22.0 0.00 0.00 0.00 100
20260503214005 51 173 13.0 18.0 0.00 0.00 0.00 100
20260503213603 52 184 12.0 17.0 0.00 0.00 0.00 100
20260503213201 52 177 12.0 17.0 0.00 0.00 0.00 100
20260503212801 52 176 11.0 19.0 0.00 0.00 0.00 100
20260503212400 52 193 12.0 19.0 0.00 0.00 0.00 100
20260503212000 52 194 11.0 17.0 0.00 0.00 0.00 100
20260503211558 52 178 12.0 15.0 0.00 0.00 0.00 100
20260503211158 52 172 12.0 17.0 0.00 0.00 0.00 100
20260503210758 52 189 11.0 17.0 0.00 0.00 0.00 100
20260503210358 52 180 11.0 16.0 0.00 0.00 0.00 100
20260503205958 52 197 10.0 17.0 0.00 0.00 0.00 100
20260503205556 52 194 10.0 16.0 0.00 0.00 0.00 100
20260503205156 52 201 10.0 15.0 0.00 0.00 0.00 100
20260503204756 52 206 9.0 12.0 0.00 0.00 0.00 100
20260503204347 52 193 9.0 13.0 0.00 0.00 0.00 100
20260503203947 52 192 9.0 14.0 0.00 0.00 0.00 100
20260503203545 53 154 8.0 11.0 0.00 0.00 0.00 100
20260503203145 53 177 8.0 14.0 0.00 0.00 0.00 100
20260503202745 53 187 7.0 11.0 0.00 0.00 0.00 100
20260503202345 53 191 8.0 11.0 0.00 0.00 0.00 100
20260503201945 53 202 8.0 12.0 0.00 0.00 0.00 100
20260503201543 53 146 6.0 11.0 0.00 0.00 0.00 100
20260503201143 53 208 6.0 9.0 0.00 0.00 0.00 100
20260503200742 54 207 6.0 9.0 0.00 0.00 0.00 100
20260503200342 54 184 6.0 10.0 0.00 0.00 0.00 100
20260503195942 54 172 6.0 9.0 0.00 0.00 0.00 100
20260503195540 55 171 5.0 6.0 0.00 0.00 0.00 100
20260503195140 55 207 6.0 8.0 0.00 0.00 0.00 100
20260503194740 55 211 6.0 8.0 0.00 0.00 0.00 100
20260503194340 55 176 9.0 12.0 0.00 0.00 0.00 100
20260503193940 55 188 8.0 11.0 0.00 0.00 0.00 100
20260503193538 55 198 8.0 14.0 0.00 0.00 0.00 100
20260503193138 55 169 9.0 16.0 0.00 0.00 0.00 100
20260503192738 55 180 8.0 12.0 0.00 0.00 0.00 100
20260503192337 55 204 8.0 11.0 0.00 0.00 0.00 100
20260503191937 55 194 7.0 10.0 0.00 0.00 0.00 100
20260503191536 56 192 8.0 13.0 0.00 0.00 0.00 100
20260503191136 56 197 8.0 12.0 0.00 0.00 0.00 100
20260503190736 56 196 6.0 12.0 0.00 0.00 0.00 100
20260503190335 56 184 7.0 12.0 0.00 0.00 0.00 100
20260503185935 56 209 8.0 12.0 0.00 0.00 0.00 100
20260503185533 56 211 8.0 13.0 0.00 0.00 0.00 100
20260503185133 56 173 9.0 15.0 0.00 0.00 0.00 100
20260503184733 56 216 6.0 10.0 0.00 0.00 0.00 100
20260503184333 57 199 7.0 10.0 0.00 0.00 0.00 100
20260503183933 57 197 6.0 12.0 0.00 0.00 0.00 100
20260503183531 57 179 9.0 12.0 0.00 0.00 0.00 100
20260503183131 57 184 7.0 10.0 0.00 0.00 0.00 100
20260503182731 57 178 7.0 11.0 0.00 0.00 0.00 100
20260503182330 57 180 7.0 9.0 0.00 0.00 0.00 100
20260503181930 57 154 7.0 9.0 0.00 0.00 0.00 100
20260503181528 57 190 8.0 14.0 0.00 0.00 0.00 100
20260503181128 57 184 7.0 11.0 0.00 0.00 0.00 100
20260503180721 57 200 7.0 9.0 0.00 0.00 0.00 100
20260503180321 57 208 6.0 10.0 0.00 0.00 0.00 100
20260503175921 57 216 7.0 13.0 0.00 0.00 0.00 100
20260503175519 57 221 6.0 8.0 0.00 0.00 0.00 100
20260503175119 58 223 7.0 10.0 0.00 0.00 0.00 100
20260503174719 58 221 7.0 10.0 0.00 0.00 0.00 100
20260503174319 58 232 7.0 12.0 0.00 0.00 0.00 100
20260503173919 59 231 8.0 9.0 0.00 0.00 0.00 100
20260503173517 59 237 8.0 13.0 0.00 0.00 0.00 100
20260503173117 59 219 8.0 13.0 0.00 0.00 0.00 100
20260503172717 59 240 7.0 10.0 0.00 0.00 0.00 100
20260503172315 60 230 7.0 12.0 0.00 0.00 0.00 100
20260503171915 60 235 9.0 12.0 0.00 0.00 0.00 100
20260503171513 60 230 8.0 13.0 0.00 0.00 0.00 100
20260503171113 61 236 8.0 12.0 0.00 0.00 0.00 100
20260503170712 61 236 7.0 13.0 0.00 0.00 0.00 100
20260503170312 61 228 9.0 14.0 0.00 0.00 0.00 100
20260503150650 64 236 6.0 9.0 0.00 0.00 0.00 100
20260503150250 64 241 7.0 13.0 0.00 0.00 0.00 100
20260503140242 65 260 4.0 8.0 0.00 0.00 0.00 100
20260503131034 63 233 8.0 14.0 0.00 0.00 0.00 100
20260503130633 64 217 7.0 12.0 0.00 0.00 0.00 100
20260503130234 63 265 4.0 9.0 0.00 0.00 0.00 100
20260503120220 63 275 5.0 8.0 0.00 0.00 0.00 100